• In Czech Republic
  • List of Countries
  • For 7 days
  • Water Temperature
  • Satellite Maps
  • Weather Map
  • Weather Widgets
  • user-avatar
    Login

    Hourly Weather Charlottetown

    Today, 24 June, Sunday

    Time Temperature Precipitation Wind Pressure Humidity
    00:00 +13°C° 0 mm 3 mps 757 mmHg 73%
    01:00 +13°C° 0 mm 3 mps 756 mmHg 76%
    02:00 +14°C° 0 mm 2 mps 755 mmHg 77%
    03:00 +13°C° 0.6 mm 2 mps 755 mmHg 82%
    04:00 +13°C° 0.6 mm 2 mps 754 mmHg 87%
    05:00 +12°C° 0.6 mm 2 mps 754 mmHg 92%
    06:00 +12°C° 0.6 mm 2 mps 754 mmHg 92%
    07:00 +12°C° 0.6 mm 2 mps 753 mmHg 92%
    08:00 +12°C° 0.6 mm 2 mps 753 mmHg 93%
    09:00 +13°C° 0 mm 1 mps 753 mmHg 90%
    10:00 +13°C° 0 mm 1 mps 753 mmHg 87%
    11:00 +13°C° 0 mm 0 mps 753 mmHg 84%
    12:00 +15°C° 0 mm 1 mps 754 mmHg 79%
    13:00 +18°C° 0 mm 1 mps 754 mmHg 75%
    14:00 +19°C° 0 mm 1 mps 754 mmHg 71%
    15:00 +17°C° 0 mm 2 mps 754 mmHg 74%
    16:00 +16°C° 0 mm 3 mps 755 mmHg 77%
    17:00 +14°C° 0 mm 3 mps 755 mmHg 80%
    18:00 +13°C° 0 mm 3 mps 755 mmHg 83%
    19:00 +12°C° 0 mm 4 mps 756 mmHg 87%
    20:00 +11°C° 0 mm 4 mps 756 mmHg 91%
    21:00 +10°C° 0.4 mm 3 mps 756 mmHg 92%
    22:00 +10°C° 0.4 mm 3 mps 757 mmHg 93%
    23:00 +10°C° 0.4 mm 3 mps 757 mmHg 95%

    Tomorrow, 25 June, Monday

    Time Temperature Precipitation Wind Pressure Humidity
    00:00 +10°C° 1 mm 3 mps 757 mmHg 95%
    01:00 +9°C° 1 mm 3 mps 757 mmHg 96%
    02:00 +8°C° 1 mm 4 mps 756 mmHg 97%
    03:00 +8°C° 1.3 mm 4 mps 756 mmHg 97%
    04:00 +8°C° 1.3 mm 4 mps 756 mmHg 97%
    05:00 +9°C° 1.3 mm 5 mps 756 mmHg 97%
    06:00 +9°C° 3.8 mm 6 mps 755 mmHg 97%
    07:00 +9°C° 3.8 mm 6 mps 755 mmHg 97%
    08:00 +9°C° 3.8 mm 7 mps 755 mmHg 97%
    09:00 +9°C° 3.8 mm 8 mps 755 mmHg 97%
    10:00 +9°C° 3.8 mm 8 mps 754 mmHg 96%
    11:00 +9°C° 3.8 mm 8 mps 754 mmHg 96%
    12:00 +8°C° 0.8 mm 9 mps 754 mmHg 96%
    13:00 +8°C° 0.8 mm 9 mps 754 mmHg 96%
    14:00 +8°C° 0.8 mm 10 mps 754 mmHg 95%
    15:00 +7°C° 0.7 mm 10 mps 754 mmHg 95%
    16:00 +7°C° 0.7 mm 11 mps 754 mmHg 94%
    17:00 +7°C° 0.7 mm 11 mps 755 mmHg 94%
    18:00 +7°C° 1.2 mm 11 mps 755 mmHg 93%
    19:00 +5°C° 1.2 mm 12 mps 756 mmHg 92%
    20:00 +5°C° 1.2 mm 12 mps 756 mmHg 91%
    21:00 +5°C° 0.5 mm 12 mps 757 mmHg 90%
    22:00 +6°C° 0.5 mm 11 mps 757 mmHg 88%
    23:00 +6°C° 0.5 mm 11 mps 758 mmHg 87%

    Day after tomorrow, 26 June, Tuesday

    Time Temperature Precipitation Wind Pressure Humidity
    00:00 +6°C° 0.1 mm 11 mps 758 mmHg 86%
    01:00 +6°C° 0.1 mm 11 mps 758 mmHg 85%
    02:00 +6°C° 0.1 mm 11 mps 759 mmHg 84%
    03:00 +6°C° 0 mm 11 mps 759 mmHg 82%
    04:00 +6°C° 0 mm 10 mps 759 mmHg 80%
    05:00 +6°C° 0 mm 10 mps 760 mmHg 78%
    06:00 +7°C° 0 mm 9 mps 760 mmHg 75%
    07:00 +8°C° 0 mm 9 mps 760 mmHg 73%
    08:00 +9°C° 0 mm 8 mps 761 mmHg 70%
    09:00 +10°C° 0 mm 8 mps 761 mmHg 68%
    10:00 +10°C° 0 mm 8 mps 761 mmHg 67%
    11:00 +11°C° 0 mm 7 mps 761 mmHg 65%
    12:00 +11°C° 0 mm 7 mps 760 mmHg 64%
    13:00 +11°C° 0 mm 6 mps 760 mmHg 64%
    14:00 +13°C° 0 mm 5 mps 760 mmHg 63%
    15:00 +13°C° 0 mm 4 mps 760 mmHg 64%
    16:00 +13°C° 0 mm 4 mps 760 mmHg 64%
    17:00 +12°C° 0 mm 3 mps 760 mmHg 64%
    18:00 +13°C° 0 mm 2 mps 760 mmHg 66%
    19:00 +12°C° 0 mm 2 mps 760 mmHg 69%
    20:00 +10°C° 0 mm 2 mps 760 mmHg 71%
    21:00 +10°C° 0 mm 2 mps 760 mmHg 70%
    22:00 +10°C° 0 mm 3 mps 760 mmHg 68%
    23:00 +10°C° 0 mm 4 mps 760 mmHg 67%

    27 June, Wednesday

    Time Temperature Precipitation Wind Pressure Humidity
    00:00 +10°C° 0 mm 4 mps 759 mmHg 70%
    01:00 +10°C° 0 mm 4 mps 759 mmHg 74%
    02:00 +9°C° 0 mm 5 mps 759 mmHg 78%
    03:00 +10°C° 0 mm 5 mps 759 mmHg 75%
    04:00 +11°C° 0 mm 6 mps 759 mmHg 72%
    05:00 +12°C° 0 mm 7 mps 759 mmHg 69%
    06:00 +13°C° 0 mm 6 mps 759 mmHg 70%
    07:00 +14°C° 0 mm 6 mps 759 mmHg 72%
    08:00 +14°C° 0 mm 6 mps 759 mmHg 73%
    09:00 +16°C° 0 mm 6 mps 759 mmHg 71%
    10:00 +17°C° 0 mm 6 mps 758 mmHg 69%
    11:00 +19°C° 0 mm 6 mps 758 mmHg 68%
    12:00 +20°C° 0 mm 6 mps 758 mmHg 65%
    13:00 +21°C° 0 mm 6 mps 758 mmHg 62%
    14:00 +22°C° 0 mm 5 mps 758 mmHg 59%
    15:00 +22°C° 0 mm 6 mps 758 mmHg 59%
    16:00 +22°C° 0 mm 7 mps 758 mmHg 59%
    17:00 +22°C° 0 mm 8 mps 758 mmHg 59%
    18:00 +21°C° 0 mm 8 mps 758 mmHg 59%
    19:00 +20°C° 0 mm 8 mps 759 mmHg 60%
    20:00 +18°C° 0 mm 9 mps 759 mmHg 60%
    21:00 +17°C° 0 mm 8 mps 759 mmHg 60%
    22:00 +16°C° 0 mm 8 mps 760 mmHg 59%
    23:00 +15°C° 0 mm 8 mps 760 mmHg 59%

    28 June, Thursday

    Time Temperature Precipitation Wind Pressure Humidity
    00:00 +15°C° 0 mm 8 mps 760 mmHg 63%
    01:00 +14°C° 0 mm 7 mps 760 mmHg 67%
    02:00 +14°C° 0 mm 7 mps 761 mmHg 72%
    03:00 +14°C° 0 mm 7 mps 761 mmHg 76%
    04:00 +14°C° 0 mm 7 mps 761 mmHg 81%
    05:00 +12°C° 0 mm 7 mps 761 mmHg 85%
    06:00 +14°C° 0 mm 7 mps 761 mmHg 85%
    07:00 +15°C° 0 mm 7 mps 762 mmHg 85%
    08:00 +16°C° 0 mm 7 mps 762 mmHg 85%
    09:00 +17°C° 0 mm 7 mps 762 mmHg 83%
    10:00 +18°C° 0 mm 7 mps 762 mmHg 82%
    11:00 +20°C° 0 mm 8 mps 762 mmHg 81%
    12:00 +20°C° 0 mm 7 mps 762 mmHg 78%
    13:00 +21°C° 0 mm 7 mps 762 mmHg 76%
    14:00 +21°C° 0 mm 7 mps 762 mmHg 73%
    15:00 +21°C° 0 mm 7 mps 762 mmHg 74%
    16:00 +20°C° 0 mm 6 mps 762 mmHg 76%
    17:00 +20°C° 0 mm 6 mps 762 mmHg 78%
    18:00 +18°C° 0.2 mm 7 mps 762 mmHg 79%
    19:00 +17°C° 0.2 mm 7 mps 762 mmHg 81%
    20:00 +17°C° 0.2 mm 8 mps 763 mmHg 83%
    21:00 +16°C° 2.1 mm 8 mps 762 mmHg 87%
    22:00 +16°C° 2.1 mm 9 mps 762 mmHg 90%
    23:00 +15°C° 2.1 mm 9 mps 762 mmHg 94%

    29 June, Friday

    Time Temperature Precipitation Wind Pressure Humidity
    00:00 +15°C° 1.4 mm 9 mps 761 mmHg 94%
    01:00 +16°C° 1.4 mm 10 mps 761 mmHg 94%
    02:00 +16°C° 1.4 mm 10 mps 761 mmHg 93%
    03:00 +16°C° 0.1 mm 10 mps 760 mmHg 93%
    04:00 +16°C° 0.1 mm 10 mps 760 mmHg 92%
    05:00 +16°C° 0.1 mm 10 mps 760 mmHg 92%
    06:00 +17°C° 0.3 mm 10 mps 760 mmHg 92%
    07:00 +17°C° 0.3 mm 10 mps 760 mmHg 92%
    08:00 +17°C° 0.3 mm 10 mps 760 mmHg 92%
    09:00 +17°C° 0.4 mm 9 mps 760 mmHg 93%
    10:00 +17°C° 0.4 mm 9 mps 760 mmHg 94%
    11:00 +17°C° 0.4 mm 9 mps 759 mmHg 95%
    12:00 +17°C° 0.2 mm 8 mps 759 mmHg 95%
    13:00 +18°C° 0.2 mm 8 mps 759 mmHg 95%
    14:00 +18°C° 0.2 mm 7 mps 759 mmHg 95%
    15:00 +18°C° 0 mm 7 mps 759 mmHg 93%
    16:00 +20°C° 0 mm 7 mps 759 mmHg 91%
    17:00 +21°C° 0 mm 7 mps 759 mmHg 89%
    18:00 +20°C° 0 mm 6 mps 759 mmHg 89%
    19:00 +20°C° 0 mm 6 mps 760 mmHg 90%
    20:00 +19°C° 0 mm 5 mps 760 mmHg 91%
    21:00 +19°C° 0 mm 5 mps 760 mmHg 93%
    22:00 +17°C° 0 mm 5 mps 760 mmHg 94%
    23:00 +17°C° 0 mm 5 mps 760 mmHg 96%
    Show more